Location: Newark
(41.0400°S, 62.7845°W)
Time: 00:30:00
(UTC+00:00)

SR - Visible Passes

Search period start: 28 November 2021 00:00
Search period end: 08 December 2021 00:00
Orbit: 583 x 871 km, 66.7° (Epoch: 27 November)

Date Brightness Start Highest point End Pass type
(mag) Time Alt. Az. Time Alt. Az. Time Alt. Az.
28 Nov ? 00:42:51 10° S 00:47:46 26° SE 00:51:53 13° E visible
28 Nov ? 02:24:31 10° SW 02:30:19 59° WNW 02:31:16 52° NNW visible
28 Nov ? 23:53:41 10° S 23:57:18 16° SE 00:00:50 10° ESE visible
29 Nov ? 01:34:33 10° SSW 01:40:29 75° ESE 01:42:44 38° NE visible
29 Nov ? 03:18:21 10° WSW 03:21:50 16° WNW 03:22:08 16° WNW visible
30 Nov ? 00:44:50 10° SSW 00:50:25 41° SE 00:54:15 18° ENE visible
30 Nov ? 02:27:16 10° SW 02:32:24 33° WNW 02:33:39 29° NW visible
30 Nov ? 23:55:21 10° S 00:00:08 25° SE 00:04:45 10° E visible
01 Dec ? 01:36:56 10° SW 01:42:45 63° WNW 01:45:12 33° N visible
02 Dec ? 00:46:59 10° SSW 00:52:54 70° ESE 00:56:47 20° NE visible
02 Dec ? 02:30:35 10° WSW 02:34:18 18° WNW 02:36:12 15° NW visible
02 Dec ? 23:57:18 10° SSW 00:02:49 39° SE 00:08:02 10° ENE visible
03 Dec ? 01:39:37 10° SW 01:44:51 35° WNW 01:47:50 21° NNW visible
04 Dec ? 00:49:20 10° SW 00:55:11 68° WNW 00:59:31 17° NNE visible
04 Dec ? 23:59:25 10° SSW 00:05:18 65° ESE 00:10:48 10° NE visible
05 Dec ? 01:42:50 10° WSW 01:46:46 19° WNW 01:50:31 10° NNW visible
06 Dec ? 00:51:59 10° SW 00:57:17 37° WNW 01:02:16 10° N visible
07 Dec ? 00:01:45 10° SSW 00:07:36 73° WNW 00:13:03 10° NNE visible
